Wind_Speed
3 3 3 3 3 3 4 5 6 5 5 5 6 6 6 6 6 6 5 5 5 5 6 6 7 7 7 7 6 6 6 5 5 5 6 5 5 4 4 4 3 3 3
2 3 3 3 3 3 3 5 6 6 6 6 6 6 6 6 6 6 6 6 6 5 5 6 7 7 7 6 6 5 5 5 5 5 5 4 4 4 3 3 3 2 3
3 3 3 3 3 3 3 5 6 6 7 6 6 6 6 6 6 6 6 6 6 6 5 6 7 7 6 6 6 5 5 5 5 4 4 4 4 3 3 3 2 3 2
3 3 2 3 3 3 4 6 6 7 6 7 7 6 6 6 6 6 6 6 7 6 6 5 6 6 6 6 6 5 5 5 5 4 4 3 3 3 3 3 2 3 2
3 3 3 2 2 3 4 5 6 7 7 7 7 6 6 5 5 5 5 6 6 6 6 6 7 7 6 5 5 5 5 5 5 4 3 3 2 2 2 2 2 3 3
3 3 3 3 4 4 4 5 5 6 7 7 7 7 6 6 5 5 5 6 6 6 5 5 5 6 6 6 6 6 5 4 4 3 3 3 2 2 2 2 2 3 3
3 2 3 3 4 4 4 4 4 5 5 5 6 6 6 5 5 4 5 5 5 6 5 5 6 6 6 6 6 5 5 4 3 3 3 3 2 2 2 2 2 2 2
3 3 3 2 3 3 3 3 3 3 3 4 5 5 6 5 4 4 4 5 5 5 6 6 5 6 5 5 4 4 4 3 3 3 3 3 3 3 3 2 1 2 1
5 4 3 3 2 2 2 2 3 3 3 4 5 5 5 5 5 4 4 5 4 4 4 4 4 3 4 4 3 3 2 3 3 2 3 3 3 3 2 3 2 2 2
6 5 4 3 3 3 2 2 3 3 4 4 4 4 4 4 5 5 4 4 4 3 4 4 3 4 4 3 3 3 2 2 2 2 3 3 3 2 2 2 2 2 1
6 5 5 4 3 3 2 2 3 3 3 4 4 4 4 4 4 5 4 4 4 3 3 3 3 2 3 2 2 1 1 2 2 2 3 3 3 2 2 1 2 2 1
8 6 5 4 4 3 3 2 2 2 3 3 3 3 4 4 5 5 5 4 3 3 3 3 2 2 2 1 1 1 1 2 2 2 2 3 3 2 1 1 1 2 1
9 8 7 6 5 4 3 3 2 2 2 2 3 3 3 3 4 4 4 4 3 3 3 3 2 2 1 1 1 1 1 1 2 3 3 3 2 2 2 1 2 2 2
9 9 9 8 7 5 5 4 2 3 2 2 3 3 2 3 4 4 4 3 3 3 2 3 2 1 1 1 0 1 1 3 3 3 3 3 3 2 2 2 3 3 2
9 10 9 9 8 7 6 4 3 3 3 2 2 3 3 2 3 3 3 3 3 2 2 3 2 2 1 1 1 2 3 3 3 3 3 3 4 3 3 3 3 3 3
9 9 9 9 8 8 6 5 3 2 2 3 2 2 3 3 3 3 2 2 1 1 1 2 2 2 2 2 2 2 3 3 4 4 4 4 3 3 3 3 4 3 3
10 10 10 10 9 8 7 6 4 3 3 3 2 2 2 2 2 2 2 1 1 1 1 1 1 1 2 2 3 2 3 3 5 5 5 5 4 4 4 4 4 4 4
10 11 10 10 9 9 8 7 6 4 3 3 2 1 1 1 1 1 1 1 1 1 1 1 1 2 2 3 3 3 4 4 5 5 5 5 5 5 5 5 5 5 6
11 10 10 10 10 9 8 8 7 6 5 4 3 3 2 2 1 1 0 1 1 1 1 1 1 3 3 3 3 4 4 5 5 5 5 5 5 5 5 5 6 6 6
11 10 10 9 9 10 8 7 7 6 5 4 4 4 3 3 2 1 0 1 2 2 2 3 3 3 4 4 4 4 5 5 6 6 6 5 5 6 6 6 7 7 7
10 11 10 10 9 10 8 7 6 5 4 3 4 4 3 2 2 2 2 1 2 2 2 3 3 4 5 4 5 5 6 6 6 6 6 6 6 6 6 7 8 8 9
10 10 9 9 9 9 8 8 6 5 4 4 3 3 3 3 3 2 2 2 2 2 3 3 4 4 5 5 5 6 6 7 7 7 7 7 6 6 7 8 9 9 9
9 9 9 9 9 9 8 8 7 5 4 3 3 3 3 2 3 3 3 2 3 4 4 4 5 5 5 5 5 6 6 6 7 6 6 7 6 7 8 9 9 9 9
10 9 9 9 9 9 8 8 7 6 4 3 3 3 3 2 2 2 3 4 4 4 4 5 6 5 5 4 5 6 6 5 6 6 6 7 7 8 9 9 9 9 9
9 9 10 9 9 9 8 7 7 6 5 3 3 3 3 2 2 2 3 4 5 4 5 6 6 5 4 4 5 5 6 6 6 7 6 6 7 7 8 8 9 9 9
9 9 9 9 9 9 9 8 6 5 5 5 4 4 3 3 3 4 4 4 5 6 6 5 5 5 5 5 6 6 6 6 7 7 7 7 7 8 9 9 9 9 9
Wind_Direction
161 163 162 151 153 145 147 147 141 138 134 130 122 121 119 116 117 119 121 130 127 128 131 130 130 132 131 129 123 122 121 117 112 110 109 110 101 92 86 82 90 84 85
142 145 146 145 137 131 142 148 138 135 135 130 126 125 119 112 115 116 118 131 134 139 141 141 132 132 129 130 127 123 124 116 109 108 104 104 99 90 79 81 84 75 84
152 144 139 129 139 146 149 149 145 138 135 133 130 126 123 117 116 115 114 118 123 134 140 136 130 125 119 122 122 121 122 118 114 106 105 101 101 93 93 84 76 74 73
158 150 135 122 143 158 149 149 149 148 145 140 130 126 123 121 118 119 115 117 118 120 128 132 129 128 118 114 116 121 119 118 115 103 103 102 89 88 72 67 75 67 60
147 141 131 123 142 158 153 151 141 140 141 140 135 127 125 126 120 115 116 118 119 121 125 122 125 126 122 114 116 120 119 115 113 100 90 86 80 79 59 53 79 72 67
127 133 133 127 134 143 142 139 137 139 140 141 141 133 133 132 129 122 121 119 122 124 127 117 129 121 123 126 125 123 119 110 101 84 76 68 54 64 59 65 88 80 72
118 129 142 130 116 132 133 127 132 146 141 139 141 140 140 139 133 125 122 121 122 129 126 121 122 125 131 132 125 117 120 115 95 84 71 61 55 53 53 64 78 72 67
94 103 113 131 100 111 119 124 137 139 144 148 148 151 152 151 145 137 131 134 132 131 131 131 127 126 131 130 122 115 111 106 89 94 77 63 63 42 50 65 73 92 50
86 94 96 92 80 95 100 118 121 131 156 158 150 154 160 160 157 151 149 145 138 141 146 140 131 132 130 124 118 112 108 85 72 57 50 43 43 43 52 61 74 85 48
74 81 89 87 81 109 112 126 109 130 154 158 155 161 172 180 176 174 176 166 161 154 146 137 128 127 123 115 105 94 75 59 51 37 26 23 29 37 42 47 53 47 23
65 72 74 75 84 93 102 102 94 126 151 166 170 174 180 177 178 180 183 182 177 154 148 146 145 140 132 112 97 80 48 31 24 18 12 6 11 10 6 15 20 15 353
59 62 53 53 57 71 89 100 100 121 142 148 151 168 171 172 178 180 176 177 175 166 162 160 150 152 139 104 87 65 37 18 15 11 2 353 1 7 3 337 329 338 338
55 54 48 43 34 42 55 61 81 96 108 112 126 146 164 171 169 169 168 179 179 167 168 177 182 190 168 132 95 29 1 330 343 351 342 332 335 5 15 345 334 321 319
53 52 47 41 34 44 51 53 59 64 77 112 123 136 153 161 165 166 170 172 169 165 172 189 209 220 232 235 280 302 319 324 331 338 330 322 306 309 319 314 316 307 291
51 50 49 45 39 47 48 50 59 55 67 87 128 143 153 151 156 164 165 170 169 171 188 211 219 230 233 262 272 299 320 327 319 318 320 311 298 298 296 304 308 305 288
47 44 49 43 40 44 44 48 51 64 68 76 109 145 158 154 165 153 151 162 190 201 207 229 232 251 269 301 292 309 318 322 318 316 315 315 304 300 298 299 306 305 290
43 44 44 42 39 42 42 45 44 56 68 85 98 117 153 163 161 147 125 148 203 232 243 246 237 246 279 301 312 315 312 318 323 323 315 316 310 300 296 292 294 298 293
38 43 42 37 33 33 38 41 45 49 72 81 86 83 120 144 139 128 126 171 209 260 274 306 302 278 291 297 306 316 315 314 317 320 321 321 318 315 304 298 297 296 292
33 34 34 31 26 31 38 42 42 52 69 79 76 64 72 107 111 101 145 235 251 263 261 281 282 289 293 299 308 321 315 309 313 318 325 320 315 312 306 294 297 294 295
29 27 31 29 24 30 37 44 43 49 63 76 71 73 78 99 107 90 34 276 273 273 277 284 287 296 298 298 304 310 313 313 313 314 313 314 314 312 307 296 298 297 294
25 24 27 30 26 28 35 37 46 55 60 71 73 66 62 71 71 55 28 354 320 300 301 311 303 300 306 307 307 306 306 311 308 308 309 312 314 311 309 302 300 298 300
21 21 27 28 25 25 31 33 39 48 56 59 64 60 46 42 45 35 7 347 334 322 319 322 318 309 310 313 314 312 316 313 313 311 308 308 314 314 312 312 308 304 303
14 14 17 18 17 19 25 27 31 43 49 47 50 38 28 35 25 18 6 333 318 318 325 332 328 317 316 322 321 324 322 317 307 304 308 311 313 314 316 319 317 313 312
13 10 11 10 11 13 18 17 22 29 39 40 35 27 13 357 350 4 351 328 319 322 328 330 327 324 329 327 323 324 321 322 326 319 311 309 314 316 320 321 318 315 315
7 5 4 5 6 7 11 15 20 24 31 25 10 3 358 349 332 331 330 323 328 335 334 333 335 330 332 339 337 334 330 327 329 332 325 322 321 323 325 324 323 319 317
2 0 358 0 5 3 5 4 10 13 12 7 4 2 353 349 334 325 321 328 337 339 334 334 343 349 350 347 341 335 330 330 329 325 328 328 323 322 323 322 323 324 321
Height
5865 5865 5866 5866 5867 5867 5868 5868 5869 5870 5871 5871 5872 5872 5873 5873 5873 5873 5873 5873 5874 5875 5875 5876 5876 5877 5877 5878 5879 5879 5880 5881 5881 5882 5883 5884 5884 5885 5886 5886 5886 5887 5887
5865 5866 5866 5867 5868 5868 5869 5869 5870 5871 5871 5872 5873 5873 5874 5874 5874 5874 5874 5874 5875 5876 5876 5877 5878 5878 5879 5879 5880 5880 5881 5882 5882 5883 5884 5884 5885 5886 5886 5886 5887 5887 5887
5866 5867 5867 5867 5868 5869 5870 5870 5871 5872 5872 5873 5874 5874 5875 5875 5875 5875 5876 5876 5876 5877 5878 5878 5879 5879 5880 5881 5881 5881 5882 5883 5883 5884 5884 5885 5886 5886 5886 5887 5887 5887 5888
5867 5868 5868 5869 5869 5869 5870 5871 5872 5872 5873 5874 5875 5875 5876 5876 5876 5877 5877 5878 5878 5878 5879 5880 5880 5880 5881 5882 5882 5882 5883 5884 5884 5885 5885 5886 5887 5887 5887 5887 5887 5888 5888
5868 5868 5869 5869 5869 5870 5870 5871 5872 5873 5873 5875 5876 5876 5877 5877 5878 5878 5879 5879 5880 5880 5881 5881 5882 5881 5883 5883 5883 5884 5884 5885 5885 5886 5886 5887 5887 5888 5888 5888 5888 5888 5888
5869 5869 5870 5870 5870 5871 5871 5872 5873 5873 5874 5875 5876 5877 5878 5878 5879 5880 5880 5880 5881 5881 5882 5883 5883 5883 5884 5884 5885 5885 5886 5886 5886 5887 5887 5888 5888 5888 5888 5888 5888 5889 5889
5870 5870 5870 5871 5871 5872 5872 5873 5874 5874 5875 5876 5877 5878 5879 5879 5880 5881 5881 5882 5882 5883 5884 5884 5885 5885 5885 5886 5886 5886 5887 5887 5888 5888 5888 5888 5888 5888 5888 5888 5888 5889 5889
5871 5871 5871 5871 5872 5873 5874 5874 5875 5875 5876 5876 5877 5878 5879 5880 5881 5882 5882 5883 5883 5884 5885 5886 5886 5886 5886 5887 5887 5887 5887 5888 5888 5888 5888 5888 5889 5889 5888 5889 5889 5889 5890
5872 5872 5872 5872 5873 5873 5874 5875 5875 5875 5876 5877 5878 5879 5880 5881 5882 5882 5883 5884 5884 5885 5886 5886 5887 5887 5887 5888 5888 5888 5888 5888 5889 5889 5889 5889 5889 5889 5889 5889 5889 5889 5890
5873 5873 5873 5873 5874 5874 5874 5875 5875 5876 5876 5877 5878 5879 5880 5881 5882 5883 5883 5884 5885 5886 5886 5887 5887 5887 5888 5888 5888 5889 5889 5889 5889 5889 5889 5889 5889 5889 5889 5889 5890 5890 5890
5875 5874 5875 5875 5875 5875 5875 5875 5876 5876 5877 5877 5878 5879 5880 5881 5882 5883 5884 5884 5885 5886 5886 5887 5888 5888 5889 5889 5889 5889 5890 5890 5890 5890 5890 5890 5889 5889 5889 5890 5890 5890 5890
5876 5876 5876 5876 5876 5876 5876 5876 5877 5877 5877 5878 5878 5879 5880 5880 5882 5883 5884 5885 5885 5886 5887 5887 5888 5888 5889 5889 5890 5890 5890 5890 5890 5890 5890 5890 5890 5889 5889 5889 5890 5890 5890
5879 5878 5877 5877 5877 5877 5877 5877 5877 5877 5878 5878 5879 5880 5880 5881 5882 5883 5884 5885 5886 5887 5887 5888 5888 5889 5889 5890 5890 5890 5890 5890 5890 5890 5890 5890 5890 5889 5889 5889 5889 5889 5889
5881 5880 5880 5879 5878 5878 5878 5878 5878 5878 5878 5879 5879 5880 5881 5881 5882 5884 5884 5885 5886 5887 5888 5888 5889 5889 5890 5890 5890 5890 5890 5890 5890 5890 5890 5890 5889 5889 5889 5889 5889 5889 5889
5883 5882 5881 5880 5880 5879 5878 5878 5878 5879 5879 5880 5880 5881 5881 5882 5883 5884 5885 5886 5887 5887 5888 5888 5889 5889 5890 5890 5890 5890 5890 5890 5890 5890 5890 5889 5889 5889 5889 5889 5889 5889 5889
5885 5884 5883 5882 5881 5880 5880 5879 5879 5879 5880 5880 5881 5881 5882 5882 5883 5885 5885 5886 5887 5887 5888 5888 5889 5889 5890 5890 5890 5890 5890 5890 5890 5889 5889 5889 5889 5889 5888 5888 5888 5888 5888
5887 5886 5885 5884 5883 5882 5881 5880 5880 5880 5880 5881 5881 5882 5883 5883 5884 5885 5886 5886 5887 5888 5888 5889 5889 5889 5890 5890 5890 5890 5890 5890 5889 5889 5889 5888 5888 5888 5887 5887 5887 5887 5887
5889 5888 5887 5886 5885 5883 5882 5882 5881 5881 5881 5882 5882 5882 5883 5884 5885 5886 5886 5887 5887 5888 5888 5889 5889 5889 5889 5889 5889 5889 5889 5889 5889 5888 5888 5888 5887 5887 5886 5887 5886 5886 5886
5891 5890 5889 5888 5886 5885 5884 5883 5883 5882 5883 5883 5884 5884 5884 5885 5886 5886 5886 5887 5887 5888 5888 5889 5889 5889 5889 5889 5889 5889 5889 5888 5888 5887 5887 5887 5886 5886 5885 5885 5885 5885 5885
5893 5892 5891 5890 5888 5887 5886 5885 5885 5884 5884 5885 5885 5885 5885 5886 5886 5886 5887 5887 5888 5888 5888 5889 5889 5888 5888 5888 5888 5888 5888 5887 5887 5886 5886 5886 5885 5884 5883 5884 5884 5884 5883
5895 5894 5893 5891 5890 5889 5888 5887 5886 5886 5886 5886 5886 5886 5886 5887 5887 5887 5887 5888 5888 5888 5888 5888 5888 5888 5888 5887 5887 5887 5887 5886 5886 5886 5885 5885 5884 5883 5883 5883 5883 5882 5881
5896 5895 5894 5893 5891 5890 5889 5889 5888 5887 5887 5887 5887 5887 5887 5887 5887 5887 5888 5888 5888 5888 5888 5888 5888 5888 5887 5887 5887 5886 5886 5886 5885 5884 5884 5883 5883 5882 5882 5881 5881 5880 5879
5898 5897 5895 5894 5893 5892 5890 5890 5889 5888 5888 5888 5888 5888 5888 5888 5888 5888 5887 5888 5888 5888 5888 5888 5887 5887 5887 5886 5886 5886 5885 5885 5884 5883 5882 5882 5882 5881 5880 5880 5879 5878 5877
5899 5898 5896 5895 5894 5893 5891 5891 5890 5889 5889 5889 5889 5888 5888 5888 5888 5888 5888 5888 5888 5888 5888 5888 5887 5886 5885 5885 5885 5884 5884 5884 5883 5882 5881 5881 5880 5879 5879 5878 5877 5876 5876
5900 5899 5897 5896 5895 5894 5893 5892 5891 5891 5890 5890 5889 5889 5888 5888 5888 5888 5888 5888 5888 5888 5887 5887 5886 5886 5885 5885 5884 5884 5883 5883 5882 5881 5880 5880 5879 5878 5877 5876 5876 5875 5874
5901 5899 5898 5897 5896 5895 5893 5893 5892 5891 5891 5890 5890 5889 5889 5888 5888 5888 5888 5888 5887 5887 5887 5886 5886 5885 5884 5884 5884 5883 5883 5882 5881 5881 5880 5879 5877 5877 5876 5875 5874 5873 5872